Location: Stockholm
(59.3333°N, 18.0500°E)
Time: 14:21:56
(UTC+02:00)

ISS - Pass Details

Date: 14 May 2019
Orbit: 407 x 410 km, 51.6° (Epoch: 20 May)

Event Time Altitude Azimuth Distance (km) Brightness Sun altitude
Exits shadow 01:35:42 18° 173° (S) 1,083 -2.3 -11.4°
Maximum altitude 01:36:01 18° 166° (SSE) 1,075 -2.2 -11.4°
Drops below altitude 10° 01:38:23 10° 120° (ESE) 1,478 -1.2 -11.4°
Sets 01:40:53 0° 101° (E) 2,342 0.1 -11.3°
